EW9216 Weather Reports


time (UTC)temp
C
wind
direction
speed
KPH
gust
KPH
rain 1hr
cm
rain 24hr
cm
rain mn
cm
humidity
%
barometer
mb
20260507033008 23 360 1.6 14.5 0.00 0.00 0.00 35 1010.0
20260507031503 24 360 1.6 19.3 0.00 0.00 0.00 34 1009.9
20260507030002 25 360 3.2 24.1 0.00 0.00 0.00 33 1009.7
20260507024501 25 360 6.4 27.4 0.00 0.00 0.00 33 1009.6
20260507023002 25 360 9.7 27.4 0.00 0.00 0.00 33 1009.4
20260507021618 26 360 4.8 25.7 0.00 0.00 0.00 33 1009.3
20260507020107 26 360 3.2 17.7 0.00 0.00 0.00 31 1009.0
20260507014615 27 360 4.8 20.9 0.00 0.00 0.00 29 1009.0
20260507013058 27 360 3.2 22.5 0.00 0.00 0.00 27 1008.9
20260507011557 28 360 1.6 19.3 0.00 0.00 0.00 17 1008.9
20260507010108 28 360 0.0 6.4 0.00 0.00 0.00 16 1008.9
20260507004556 29 360 9.7 17.7 0.00 0.00 0.00 15 1008.8
20260507003055 29 360 0.0 12.9 0.00 0.00 0.00 15 1008.8
20260507001605 29 360 0.0 17.7 0.00 0.00 0.00 15 1008.7
20260507000055 29 360 0.0 16.1 0.00 0.00 0.00 15 1008.7
20260506234555 29 360 0.0 19.3 0.00 0.00 0.00 14 1008.7
20260506233056 30 360 0.0 17.7 0.00 0.00 0.00 15 1008.7
20260506231553 29 244 0.0 20.9 0.00 0.00 0.00 14 1008.8
20260506230100 30 360 0.0 14.5 0.00 0.00 0.00 14 1008.8
20260506224550 30 360 3.2 19.3 0.00 0.00 0.00 15 1009.0
20260506223049 30 256 0.0 16.1 0.00 0.00 0.00 15 1009.0
20260506221549 29 209 1.6 30.6 0.00 0.00 0.00 16 1009.1
20260506220051 30 255 12.9 19.3 0.00 0.00 0.00 15 1009.1
20260506214546 30 360 0.0 1.6 0.00 0.00 0.00 15 1009.3
20260506213043 29 233 4.8 17.7 0.00 0.00 0.00 14 1009.6
20260506211542 30 198 0.0 19.3 0.00 0.00 0.00 14 1009.8
20260506210043 29 360 1.6 14.5 0.00 0.00 0.00 15 1010.0
20260506204537 29 360 8.0 20.9 0.00 0.00 0.00 17 1010.0
20260506203034 28 360 0.0 19.3 0.00 0.00 0.00 18 1010.3
20260506201542 28 239 0.0 3.2 0.00 0.00 0.00 19 1010.6
20260506200031 28 360 0.0 1.6 0.00 0.00 0.00 18 1010.7
20260506194532 27 360 0.0 8.0 0.00 0.00 0.00 20 1010.9
20260506193030 27 360 0.0 17.7 0.00 0.00 0.00 19 1011.1
20260506191527 27 261 1.6 14.5 0.00 0.00 0.00 20 1011.3
20260506190024 26 360 0.0 1.6 0.00 0.00 0.00 21 1011.4
20260506184523 26 176 0.0 9.7 0.00 0.00 0.00 21 1011.5
20260506183022 26 42 0.0 9.7 0.00 0.00 0.00 22 1011.6
20260506181519 27 360 0.0 0.0 0.00 0.00 0.00 21 1011.8
20260506180016 26 360 0.0 0.0 0.00 0.00 0.00 23 1012.0
20260506174512 26 138 0.0 0.0 0.00 0.00 0.00 23 1012.0
20260506173008 26 360 0.0 0.0 0.00 0.00 0.00 23 1012.0
20260506171504 26 360 0.0 0.0 0.00 0.00 0.00 24 1012.1
20260506164556 25 360 0.0 0.0 0.00 0.00 0.00 26 1012.1
20260506163102 23 360 0.0 0.0 0.00 0.00 0.00 29 1012.0
20260506161548 23 360 0.0 9.7 0.00 0.00 0.00 30 1012.0
20260506160044 23 360 0.0 6.4 0.00 0.00 0.00 31 1011.9
20260506154545 22 10 0.0 12.9 0.00 0.00 0.00 32 1011.9
20260506153039 22 360 0.0 17.7 0.00 0.00 0.00 33 1012.1
20260506151530 21 11 1.6 16.1 0.00 0.00 0.00 35 1012.1
20260506150031 20 360 4.8 20.9 0.00 0.00 0.00 36 1012.1
20260506144522 19 360 3.2 17.7 0.00 0.00 0.00 38 1012.1
20260506143019 18 15 1.6 12.9 0.00 0.00 0.00 40 1012.1
20260506141514 18 360 0.0 12.9 0.00 0.00 0.00 41 1012.0
20260506140010 17 360 0.0 12.9 0.00 0.00 0.00 44 1012.0
20260506134507 15 13 0.0 3.2 0.00 0.00 0.00 48 1011.9
20260506133002 14 360 0.0 0.0 0.00 0.00 0.00 51 1011.9
20260506131559 12 360 0.0 1.6 0.00 0.00 0.00 55 1011.7
20260506130055 12 360 0.0 0.0 0.00 0.00 0.00 57 1011.5
20260506124550 11 360 0.0 1.6 0.00 0.00 0.00 58 1011.4
20260506123048 12 360 0.0 0.0 0.00 0.00 0.00 56 1011.3
20260506121544 13 360 0.0 0.0 0.00 0.00 0.00 53 1011.1
20260506120042 13 360 0.0 0.0 0.00 0.00 0.00 51 1011.0
20260506114539 14 360 0.0 0.0 0.00 0.00 0.00 50 1010.9
20260506113036 14 360 0.0 0.0 0.00 0.00 0.00 50 1010.8
20260506111540 15 360 0.0 0.0 0.00 0.00 0.00 49 1010.8
20260506110033 15 360 0.0 0.0 0.00 0.00 0.00 48 1010.9
20260506104529 15 360 0.0 0.0 0.00 0.00 0.00 47 1010.8
20260506103029 16 360 0.0 0.0 0.00 0.00 0.00 46 1010.8
20260506101529 16 360 0.0 0.0 0.00 0.00 0.00 46 1010.7
20260506100027 16 360 0.0 0.0 0.00 0.00 0.00 46 1010.7
20260506094527 16 360 0.0 0.0 0.00 0.00 0.00 46 1010.7
20260506093043 16 360 0.0 0.0 0.00 0.00 0.00 46 1010.7
20260506091525 15 360 0.0 0.0 0.00 0.00 0.00 47 1010.7
20260506090021 16 360 0.0 0.0 0.00 0.00 0.00 44 1010.8
20260506084520 16 360 0.0 0.0 0.00 0.00 0.00 44 1010.8
20260506083017 17 360 0.0 0.0 0.00 0.00 0.00 42 1010.7
20260506081514 18 360 0.0 0.0 0.00 0.00 0.00 41 1010.9
20260506073011 17 360 0.0 0.0 0.00 0.00 0.00 41 1011.1
20260506071508 18 360 0.0 0.0 0.00 0.00 0.00 39 1010.9
20260506061502 20 360 0.0 0.0 0.00 0.00 0.00 37 1010.9
20260506050103 21 360 0.0 1.6 0.00 0.00 0.00 35 1010.4
20260506044613 21 360 0.0 4.8 0.00 0.00 0.00 35 1010.4
20260506043059 22 360 0.0 16.1 0.00 0.00 0.00 36 1010.3
20260506041609 22 360 0.0 19.3 0.00 0.00 0.00 39 1010.1
20260506034602 22 360 0.0 19.3 0.00 0.00 0.00 40 1009.5